STARLINK-3141 (49459 NORAD) Tracking and Keplerian Element Data

This shows tracking and keplerian element data for the satellite.

Feedback or suggestion? Click here.




ElementValue
Catalog49459
NameSTARLINK-3141
Epoch Orbit370
Epoch Day15.91668981
Epoch Year2022
RAAN180.2244
Inclination53.2173
Eccentricity0.0001626
Argument of Perigee24.407
Mean Anonmoly155.631
Mean Motion15.55376079
Decay Rate-0.00651871
L11 49459U 21104BD 22015.91668981 -.00651871 00000+0 -10210-1 0 9991
L22 49459 53.2173 180.2244 0001626 24.4070 155.6310 15.55376079 3706

Live tracking and technical data element details for STARLINK-3141 (NORAD 49459). STARLINK-3141 can be tracked NOW for your location showing map with azimuth and elevation plus other details from your city location.

Track the satellite on the map from your city or location and see movement details for azimuth, elevation, latitude, longitude, range, height, and movement on the map or in text.







IsCatalogInMostPopularTable: catalog: 49459, numindb: 14
Update: records affected: 1



GetName: 49459 STARLINK-3141

Hit Count: updated at: Thu, 20 Jan 2022 16:48:41 GMT